Georgetown, DE

2:14 AM EDT on August 25, 2016 (GMT -0400)
Sussex County

Weather History for KGED - November, 2014

Change the Weather History Date:

Thursday, November 6, 2014

  Actual Average Record
Temperature  
Mean Temperature 58 °F 51 °F  
Max Temperature 65 °F 62 °F 82 °F (1948)
Min Temperature 51 °F 41 °F 20 °F (1991)
Degree Days  
Heating Degree Days 7 14  
Month to date heating degree days 74 78  
Since 1 July heating degree days 255 364  
Cooling Degree Days 0 0  
Month to date cooling degree days 0 0  
Year to date cooling degree days 1149 1194  
Growing Degree Days 8 (Base 50)    
Moisture  
Dew Point 53 °F    
Average Humidity 77    
Maximum Humidity 93    
Minimum Humidity 61    
Precipitation  
Precipitation 0.33 in 0.12 in 2.08 in (2003)
Month to date precipitation 0.79 0.72  
Year to date precipitation 37.50 37.84  
Sea Level Pressure  
Sea Level Pressure 29.83 in    
Wind  
Wind Speed 7 mph (SSW)    
Max Wind Speed 17 mph    
Max Gust Speed 22 mph    
Visibility 7 miles    
Events Rain    
T = Trace of Precipitation, MM = Missing Value Source: NWS Daily Summary

Daily Weather History Graph

Daily Weather History Graph

Search for Another Location

Airport or City:

Trip Planner

Search our weather history database for the weather conditions in past years. The results will help you decide how hot, cold, wet, or windy it might be!

Date:

Astronomy

Nov. 06, 2014 Rise Set
Actual Time 6:33 AM EST 4:55 PM EST
Civil Twilight 6:05 AM EST 5:23 PM EST
Nautical Twilight 5:34 AM EST 5:55 PM EST
Astronomical Twilight 5:03 AM EST 6:26 PM EST
Moon 5:01 PM EST (11/6) 6:03 AM EST (11/6)
Length of Visible Light 11h 17m
Length of Day
10h 22m
Full, 100% of the Moon is Illuminated
Nov 6
Full
Nov 6
Full
Nov 14
Last Quarter
Nov 22
New
Nov 29
First Quarter

Hourly Weather History & Observations

Time (EST) Temp. Dew Point Humidity Pressure Visibility Wind Dir Wind Speed Gust Speed Precip Events Conditions
12:54 AM 54.0 °F 50.0 °F 86% 30.12 in 10.0 mi SSW 4.6 mph - N/A   Overcast
1:54 AM 54.0 °F 46.9 °F 77% 30.10 in 10.0 mi Calm Calm - N/A   Partly Cloudy
2:54 AM 54.0 °F 48.0 °F 80% 30.08 in 10.0 mi NNE 4.6 mph - N/A   Overcast
3:54 AM 55.0 °F 43.0 °F 64% 30.04 in 10.0 mi NE 9.2 mph - N/A   Scattered Clouds
4:54 AM 54.0 °F 43.0 °F 66% 30.04 in 10.0 mi East 5.8 mph - N/A   Overcast
5:54 AM 53.1 °F 44.1 °F 71% 30.00 in 10.0 mi ENE 6.9 mph - 0.00 in Rain Light Rain
6:54 AM 52.0 °F 48.0 °F 86% 29.99 in 7.0 mi East 3.5 mph - 0.01 in Rain Light Rain
7:45 AM 54.0 °F 51.1 °F 90% 29.98 in 5.0 mi SE 3.5 mph - 0.06 in Rain Light Rain
7:54 AM 54.0 °F 52.0 °F 93% 29.98 in 4.0 mi SE 4.6 mph - 0.07 in Rain Rain
8:08 AM 55.0 °F 53.1 °F 93% 29.97 in 2.5 mi ESE 4.6 mph - 0.03 in Rain Heavy Rain
8:29 AM 55.0 °F 53.1 °F 93% 29.96 in 2.5 mi SE 4.6 mph - 0.07 in Rain Rain
8:38 AM 55.9 °F 54.0 °F 93% 29.95 in 3.0 mi SSE 3.5 mph - 0.08 in Rain Rain
8:54 AM 55.9 °F 54.0 °F 93% 29.94 in 3.0 mi South 3.5 mph - 0.10 in Rain Light Rain
9:01 AM 55.9 °F 54.0 °F 93% 29.94 in 1.8 mi Calm Calm - 0.00 in Rain Heavy Rain
9:11 AM 57.0 °F 55.0 °F 93% 29.94 in 3.0 mi South 4.6 mph - 0.02 in Rain Light Rain
9:54 AM 57.9 °F 55.9 °F 93% 29.91 in 5.0 mi South 10.4 mph - 0.03 in   Mostly Cloudy
10:54 AM 60.1 °F 57.0 °F 90% 29.86 in 7.0 mi SSW 9.2 mph - 0.01 in Rain Light Rain
11:33 AM 63.0 °F 59.0 °F 87% 29.83 in 10.0 mi SW 16.1 mph 21.9 mph 0.01 in   Mostly Cloudy
11:54 AM 63.0 °F 59.0 °F 87% 29.81 in 10.0 mi SW 12.7 mph 20.7 mph 0.01 in   Overcast
12:54 PM 64.0 °F 57.0 °F 78% 29.77 in 10.0 mi WSW 13.8 mph 21.9 mph N/A   Overcast
1:54 PM 64.0 °F 57.9 °F 80% 29.75 in 10.0 mi SW 12.7 mph - 0.00 in Rain Light Rain
2:54 PM 63.0 °F 57.9 °F 84% 29.71 in 10.0 mi SW 16.1 mph - 0.00 in   Overcast
3:01 PM 63.0 °F 57.9 °F 84% 29.72 in 10.0 mi SSW 11.5 mph - N/A   Overcast
3:54 PM 63.0 °F 57.9 °F 84% 29.68 in 10.0 mi SSW 9.2 mph - 0.00 in   Overcast
4:16 PM 63.0 °F 57.9 °F 84% 29.68 in 10.0 mi SW 8.1 mph - N/A   Overcast
4:54 PM 63.0 °F 57.9 °F 84% 29.67 in 10.0 mi SW 10.4 mph - N/A   Overcast
5:30 PM 62.1 °F 57.0 °F 84% 29.67 in 9.0 mi West 6.9 mph 18.4 mph 0.00 in Rain Light Rain
5:54 PM 60.1 °F 57.0 °F 90% 29.68 in 10.0 mi NW 8.1 mph - 0.01 in   Overcast
6:54 PM 55.9 °F 54.0 °F 93% 29.66 in 10.0 mi Calm Calm - N/A   Mostly Cloudy
7:54 PM 55.0 °F 53.1 °F 93% 29.68 in 9.0 mi Calm Calm - N/A   Partly Cloudy
7:59 PM 52.0 °F 51.1 °F 97% 29.69 in 1.2 mi Calm Calm - N/A   Scattered Clouds
8:01 PM 51.1 °F 50.0 °F 96% 29.68 in 0.8 mi Calm Calm - N/A   Scattered Clouds
8:21 PM 54.0 °F 52.0 °F 93% 29.69 in 4.0 mi Calm Calm - 0.00 in Rain Light Rain
8:54 PM 55.0 °F 52.0 °F 89% 29.68 in 10.0 mi Calm Calm - 0.01 in Rain Light Rain
9:54 PM 54.0 °F 52.0 °F 93% 29.70 in 6.0 mi SW 4.6 mph - 0.02 in Rain Rain
10:24 PM 54.0 °F 52.0 °F 93% 29.71 in 6.0 mi WNW 3.5 mph - 0.02 in Rain Rain
10:35 PM 54.0 °F 52.0 °F 93% 29.71 in 7.0 mi Calm Calm - 0.03 in Rain Light Rain
10:54 PM 54.0 °F 52.0 °F 93% 29.70 in 7.0 mi WNW 3.5 mph - 0.04 in Rain Light Rain
11:54 PM 53.1 °F 50.0 °F 89% 29.70 in 7.0 mi NW 5.8 mph - 0.02 in Rain Light Rain